MDT,Max TemperatureF,Mean TemperatureF,Min TemperatureF,Max Dew PointF,MeanDew PointF,Min DewpointF,Max Humidity, Mean Humidity, Min Humidity, Max Sea Level PressureIn, Mean Sea Level PressureIn, Min Sea Level PressureIn, Max VisibilityMiles, Mean VisibilityMiles, Min VisibilityMiles, Max Wind SpeedMPH, Mean Wind SpeedMPH, Max Gust SpeedMPH,PrecipitationIn, CloudCover, Events, WindDirDegrees
2013-6-1,67,55,42,43,40,34,86,58,29,30.19,30.08,29.93,10,10,10,43,20,51,T,5,Rain,343
2013-6-2,81,60,39,44,40,36,85,54,23,30.18,29.95,29.74,10,10,10,28,14,33,0.00,0,,169
2013-6-3,91,71,50,52,45,33,77,46,14,29.76,29.66,29.57,10,10,10,26,11,31,0.00,0,,106
2013-6-4,75,62,49,50,45,40,86,60,33,30.19,29.96,29.78,10,10,10,29,13,36,0.02,2,Rain,19
2013-6-5,66,56,45,48,44,39,86,63,40,30.23,30.14,30.06,10,10,5,20,10,23,0.11,6,Rain,12
2013-6-6,77,59,41,50,44,39,93,60,27,30.10,30.02,29.96,10,10,10,18,8,24,0.00,0,,117
2013-6-7,83,64,45,50,46,42,93,60,26,30.02,29.87,29.66,10,10,6,21,8,26,T,1,Rain-Thunderstorm,181
2013-6-8,78,63,47,52,47,39,86,56,26,29.93,29.74,29.53,10,10,10,40,17,51,T,2,,331
2013-6-9,85,65,45,48,44,41,86,54,22,29.95,29.88,29.79,10,10,10,17,8,22,0.00,0,,214
2013-6-10,100,79,58,48,43,31,67,38,9,29.88,29.72,29.66,10,10,10,28,10,40,0.00,0,,157
2013-6-11,96,75,54,60,56,49,83,52,20,29.76,29.67,29.60,10,10,10,22,7,26,T,0,,37
2013-6-12,89,72,55,58,50,40,84,53,21,30.07,29.96,29.78,10,10,10,28,12,32,0.00,1,,24
2013-6-13,83,66,49,54,50,46,89,63,36,30.20,29.97,29.78,10,9,1,48,17,59,T,2,Rain-Thunderstorm,145
2013-6-14,87,74,60,56,51,45,84,53,22,29.89,29.80,29.73,10,10,10,28,13,32,0.00,0,,78
2013-6-15,81,67,53,57,53,47,78,57,36,30.11,29.96,29.84,10,10,10,20,10,24,0.00,2,Thunderstorm,35
2013-6-16,95,74,53,60,49,25,100,54,8,30.11,29.96,29.83,10,8,0,31,14,38,0.00,0,Fog,152
2013-6-17,82,64,45,56,50,44,100,67,33,30.25,30.07,29.97,10,7,0,28,13,44,0.06,3,Fog-Rain,81
2013-6-18,89,71,52,54,50,47,83,54,24,30.17,29.96,29.82,10,10,9,26,12,33,0.06,2,Rain-Thunderstorm,140
2013-6-19,92,73,54,60,56,52,93,62,30,29.88,29.73,29.61,10,10,10,35,20,43,0.03,1,Thunderstorm,166
2013-6-20,89,72,55,62,54,32,93,55,16,29.87,29.72,29.60,10,9,4,26,13,29,0.00,0,Thunderstorm,50
2013-6-21,91,76,61,66,55,27,93,64,35,29.95,29.76,29.60,10,8,2,35,14,43,0.02,2,Rain-Thunderstorm,25
2013-6-22,81,69,57,63,54,36,93,60,27,30.00,29.81,29.64,10,10,9,38,12,48,T,4,Rain,77
2013-6-23,83,68,53,53,49,45,86,58,30,30.02,29.85,29.75,10,10,9,45,14,55,T,1,,25
2013-6-24,91,77,63,65,51,40,84,54,24,29.90,29.68,29.57,10,10,8,33,16,41,0.00,1,,188
2013-6-25,93,75,56,66,47,36,93,54,14,29.83,29.71,29.62,10,9,4,30,13,38,0.00,0,,311
2013-6-26,100,78,55,48,41,35,62,37,11,29.90,29.85,29.81,10,10,9,23,11,29,0.00,0,,220
2013-6-27,94,78,61,56,49,41,63,40,17,30.10,29.99,29.84,10,10,10,28,12,31,0.00,0,,30
2013-6-28,93,76,58,55,51,48,78,51,23,30.12,30.08,30.01,10,10,10,18,10,24,0.00,0,,54
2013-6-29,91,73,54,52,49,46,83,53,23,30.27,30.06,29.98,10,10,10,20,7,37,T,1,Thunderstorm,34
2013-6-30,84,69,53,48,46,43,72,49,26,30.12,30.09,30.06,10,10,10,17,7,24,0.00,2,,120